Muscle Shoals, AL

12:34 PM CST on December 15, 2019 (GMT -0600)
Northwest Alabama Regional

Weather History for KMSL - October, 2019

Change the Weather History Date:

Friday, October 11, 2019

  Actual Average Record
Temperature  
Mean Temperature 69 °F 64 °F  
Max Temperature 85 °F 76 °F 93 °F (1897)
Min Temperature 53 °F 51 °F 29 °F (1906)
Degree Days  
Heating Degree Days 0 4  
Month to date heating degree days 1 31  
Since 1 July heating degree days 1 46  
Cooling Degree Days 4 2  
Month to date cooling degree days 127 34  
Year to date cooling degree days 2485 1836  
Growing Degree Days 20 (Base 50)    
Moisture  
Dew Point 61 °F    
Average Humidity 66    
Maximum Humidity 90    
Minimum Humidity 41    
Precipitation  
Precipitation 0.09 in 0.10 in 2.55 in (1900)
Month to date precipitation 1.20 1.17  
Year to date precipitation 47.72 40.60  
Snow  
Snow 0.00 in - - ()
Month to date snowfall 0.0  
Since 1 July snowfall 0.0  
Since 1 September snowfall 0.0  
Snow Depth 0.00 in    
Sea Level Pressure  
Sea Level Pressure 30.03 in    
Wind  
Wind Speed 9 mph (SSW)    
Max Wind Speed 18 mph    
Max Gust Speed 23 mph    
Visibility 10 miles    
Events Rain    
T = Trace of Precipitation, MM = Missing Value Source: NWS Daily Summary

Daily Weather History Graph

Daily Weather History Graph

Search for Another Location

Airport or City:

Astronomy

Oct. 11, 2019 Rise Set
Actual Time 6:52 AM CDT 6:21 PM CDT
Civil Twilight 6:27 AM CDT 6:46 PM CDT
Nautical Twilight 5:58 AM CDT 7:15 PM CDT
Astronomical Twilight 5:28 AM CDT 7:44 PM CDT
Moon 5:42 PM CDT (10/11) 4:41 AM CDT (10/11)
Length of Visible Light 12h 19m
Length of Day
11h 28m
Waxing Gibbous, 96% of the Moon is Illuminated
Oct 11
Waxing Gibbous
Oct 13
Full
Oct 21
Last Quarter
Oct 27
New
Nov 4
First Quarter

Hourly Weather History & Observations

Time (CDT) Temp. Heat Index Dew Point Humidity Pressure Visibility Wind Dir Wind Speed Gust Speed Precip Events Conditions
12:53 AM 66.0 °F - 62.1 °F 87% 30.01 in 10.0 mi Calm Calm - N/A   Scattered Clouds
1:53 AM 66.0 °F - 62.1 °F 87% 30.01 in 10.0 mi SE 4.6 mph - N/A   Mostly Cloudy
2:53 AM 68.0 °F - 61.0 °F 78% 30.00 in 10.0 mi SE 6.9 mph - N/A   Scattered Clouds
3:53 AM 69.1 °F - 61.0 °F 75% 30.01 in 10.0 mi SE 8.1 mph - N/A   Overcast
4:53 AM 70.0 °F - 60.1 °F 71% 30.02 in 10.0 mi SE 8.1 mph - N/A   Overcast
5:53 AM 69.1 °F - 60.1 °F 73% 30.05 in 10.0 mi SSE 6.9 mph - N/A   Overcast
6:53 AM 68.0 °F - 60.1 °F 76% 30.06 in 10.0 mi SE 8.1 mph - N/A   Overcast
7:53 AM 69.1 °F - 60.1 °F 73% 30.06 in 10.0 mi SSE 8.1 mph - N/A   Mostly Cloudy
8:53 AM 72.0 °F - 59.0 °F 64% 30.06 in 10.0 mi SSE 13.8 mph - N/A   Overcast
9:53 AM 73.9 °F - 57.9 °F 57% 30.07 in 10.0 mi SSE 9.2 mph - N/A   Partly Cloudy
10:53 AM 78.1 °F - 57.9 °F 50% 30.06 in 10.0 mi SSE 12.7 mph - N/A   Overcast
11:53 AM 84.0 °F 83.5 °F 57.9 °F 41% 30.04 in 10.0 mi South 10.4 mph - N/A   Mostly Cloudy
12:53 PM 82.0 °F 82.7 °F 61.0 °F 49% 30.01 in 10.0 mi SSW 15.0 mph - N/A   Overcast
1:53 PM 84.9 °F 85.0 °F 61.0 °F 44% 29.98 in 10.0 mi SSW 11.5 mph - N/A   Overcast
2:53 PM 82.0 °F 82.4 °F 60.1 °F 47% 29.97 in 10.0 mi South 5.8 mph - N/A   Mostly Cloudy
3:53 PM 81.0 °F 81.1 °F 57.9 °F 45% 29.97 in 10.0 mi SSW 8.1 mph - N/A   Overcast
4:53 PM 72.0 °F - 64.0 °F 76% 29.99 in 3.0 mi SSW 3.5 mph - 0.05 in Rain Rain
5:53 PM 71.1 °F - 66.9 °F 87% 30.01 in 10.0 mi West 6.9 mph - 0.02 in   Mostly Cloudy
6:53 PM 71.1 °F - 68.0 °F 90% 30.02 in 10.0 mi West 4.6 mph - N/A   Overcast
7:53 PM 71.1 °F - 68.0 °F 90% 30.02 in 10.0 mi NW 9.2 mph - N/A   Overcast
7:57 PM 69.1 °F - 66.0 °F 90% 30.04 in 10.0 mi NW 11.5 mph 16.1 mph N/A   Overcast
8:06 PM 66.0 °F - 63.0 °F 90% 30.05 in 10.0 mi NW 11.5 mph - N/A   Overcast
8:21 PM 64.9 °F - 61.0 °F 87% 30.06 in 10.0 mi NW 10.4 mph - N/A   Overcast
8:53 PM 63.0 °F - 59.0 °F 87% 30.06 in 10.0 mi NW 12.7 mph - 0.00 in Rain Light Rain
9:53 PM 60.1 °F - 57.0 °F 90% 30.09 in 10.0 mi WNW 9.2 mph - 0.00 in   Overcast
10:53 PM 57.9 °F - 54.0 °F 87% 30.10 in 6.0 mi NNW 10.4 mph 18.4 mph 0.01 in Rain Light Rain
11:53 PM 55.0 °F - 52.0 °F 89% 30.12 in 10.0 mi NNW 10.4 mph - 0.00 in   Overcast